Location: �clusier
(49.9361°N, 2.7869°E)
Time: 04:19:49
(UTC+00:00)

Cosmos 1943 Rocket - Pass Details

Date: 01 November 2021
Orbit: 811 x 844 km, 71.0° (Epoch: 07 December)

Event Time Altitude Azimuth Distance (km) Brightness Sun altitude
Rises 17:50:57 0° 333° (NNW) 3,416 5.6 -14.1°
Reaches altitude 10° 17:54:06 10° 350° (N) 2,476 4.7 -14.6°
Maximum altitude 17:58:13 20° 37° (NE) 1,863 3.6 -15.3°
Enters shadow 17:59:29 19° 54° (NE) 1,927 3.6 -15.5°
